Location: Équennes
(49.7375°N, 1.9622°E)
Time: 12:38:14
(UTC+00:00)

CZ-4 R/B - Visible Passes

Search period start: 25 September 2023 00:00
Search period end: 05 October 2023 00:00
Orbit: 521 x 583 km, 97.7° (Epoch: 24 September)

Date Brightness Start Highest point End Pass type
(mag) Time Alt. Az. Time Alt. Az. Time Alt. Az.
25 Sep 3.0 19:42:29 10° SSW 19:45:58 31° W 19:49:27 10° NNW visible
26 Sep 2.9 19:38:44 10° SSW 19:42:17 34° W 19:45:49 10° NNW visible
27 Sep 2.7 19:34:58 10° SSW 19:38:35 37° W 19:42:11 10° NNW visible
28 Sep 2.5 19:31:13 10° S 19:34:52 41° W 19:38:31 10° NNW visible
29 Sep 2.3 19:27:28 10° S 19:31:10 45° W 19:34:51 10° NNW visible
30 Sep 2.1 19:23:42 10° S 19:27:27 49° W 19:31:10 10° NNW visible
01 Oct 1.9 19:19:57 10° S 19:23:43 55° W 19:27:28 10° NNW visible
02 Oct 1.7 19:16:12 10° S 19:19:59 60° W 19:23:45 10° NNW visible
03 Oct 1.5 19:12:25 10° S 19:16:14 67° WSW 19:20:01 10° NNW visible
04 Oct 1.4 19:08:46 11° S 19:12:28 74° WSW 19:16:18 10° NNW visible
